SCP
0 0 0 0 0 0 0 0 0 0 0 0 0 0 0 0 0 0 0 0 0 0 0 0 0 0 0 0 0 0 0 0 0 0 0 0 0 0 0 0 0 0 0 0
0 0 0 0 0 0 0 0 0 0 0 0 0 0 0 0 0 0 0 0 0 0 0 0 0 0 0 0 0 0 0 0 0 0 0 0 0 0 0 0 0 0 0 0
0 0 0 -0 0 0 0 0 0 0 0 0 0 0 0 0 0 0 0 0 0 0 0 0 0 0 0 0 0 0 0 0 0 0 0 0 0 0 0 0 0 0 0 0
0 0 0 0 0 0 0 0 0 0 0 0 0 0 0 0 0 0 0 0 0 0 0 0 0 0 0 0 0 0 0 0 0 0 0 0 0 0 0 0 0 0 0 0
0 0 0 0 0 0 0 0 0 0 0 0 0 0 0 0 0 0 0 0 0 0 0 0 0 0 0 0 0 0 0 0 0 0 0 0 0 0 0 0 0 0 0 0
0 0 0 0 0 0 0 0 0 0 0 0 0 0 0 0 0 0 0 0 0 0 0 0 0 0 0 0 0 0 0 0 0 0 0 0 0 0 0 0 0 0 0 0
0 0 0 0 0 0 0 0 0 0 0 0 0 0 0 0 0 0 0 0 0 0 0 0 0 0 0 0 0 0 0 0 0 0 0 0 0 0 0 0 0 0 0 0
0 0 0 0 0 0 0 0 0 0 0 0 0 0 0 0 0 0 0 0 0 0 0 0 0 0 0 0 0 0 0 0 0 0 0 0 0 0 0 0 0 0 0 0
0 0 0 0 0 0 0 0 0 0 0 0 -0 0 -0 0 0 0 0 0 0 0 0 0 0 0 0 0 0 0 0 0 0 0 0 0 0 0 0 0 0 0 0 0
0 0 0 0 0 0 0 0 0 0 -0 -0 -0 -0 -0 0 0 0 0 0 0 0 0 0 0 0 0 0 0 0 0 0 0 0 0 0 0 0 0 0 0 0 0 0
0 0 0 0 0 0 0 0 0 0 0 0 -0 0 0 0 0 0 0 0 0 0 0 0 0 0 0 0 0 0 0 0 0 0 0 0 0 0 0 0 0 0 0 0
0 0 0 0 0 0 0 0 0 0 0 0 0 0 0 0 0 0 0 0 0 0 0 0 0 0 0 0 0 0 0 0 0 0 0 0 0 0 0 0 0 0 0 0
0 0 0 0 0 0 0 0 0 0 0 0 0 0 0 0 0 0 0 0 0 0 0 0 0 0 0 0 0 0 0 0 0 0 0 0 0 0 0 0 0 0 0 0
0 0 0 0 0 0 0 0 0 0 0 0 0 0 0 0 0 0 0 0 0 0 0 0 0 0 0 0 0 0 0 0 0 0 0 0 0 0 0 0 0 0 0 0
0 0 0 0 0 0 0 0 0 0 0 0 0 0 0 0 0 0 0 0 0 0 0 0 0 0 0 0 0 0 0 0 0 0 0 0 0 0 0 0 0 0 0 0
0 0 0 0 0 0 0 0 0 0 0 0 0 0 0 0 0 0 0 0 0 0 0 0 0 0 0 0 0 0 0 0 0 0 0 0 0 0 0 0 0 0 0 0
0 0 0 0 0 0 0 0 0 0 0 0 0 0 0 0 0 0 0 0 0 0 0 0 0 0 0 0 0 0 0 0 0 0 0 0 0 0 0 0 0 0 0 0
0 0 0 0 0 0 0 0 0 0 0 0 0 0 0 0 0 0 0 0 0 0 0 0 0 0 0 0 0 0 0 0 0 0 0 0 0 0 0 0 0 0 0 0
0 0 0 0 0 0 0 0 0 0 0 0 0 0 0 0 0 0 0 0 0 0 0 0 0 0 0 0 0 0 0 0 0 0 0 0 0 0 0 0 0 0 0 0
0 0 0 0 0 0 0 0 0 0 0 0 0 0 0 0 0 0 0 0 0 0 0 0 0 0 0 0 0 0 0 0 0 0 0 0 0 0 0 0 0 0 0 0
0 0 0 0 0 0 0 0 0 0 0 0 0 0 0 0 0 0 0 0 0 0 0 0 0 0 0 0 0 0 0 0 0 0 0 0 0 0 0 0 0 0 0 0
0 0 0 0 0 0 0 0 0 0 0 0 0 0 0 0 0 0 0 0 0 0 0 0 0 0 0 0 0 0 0 0 0 0 0 0 0 0 0 0 0 0 0 0
0 0 0 0 0 0 0 0 0 0 0 0 0 0 0 0 0 0 0 0 0 0 0 0 0 0 0 0 0 0 0 0 0 0 0 0 0 0 0 0 0 0 0 0
0 0 0 0 0 0 0 0 0 0 0 0 0 0 0 0 0 0 0 0 0 0 0 0 0 0 0 0 0 0 0 0 0 0 0 0 0 0 0 0 0 0 0 0
0 0 0 0 0 0 0 0 0 0 0 0 0 0 0 0 0 0 0 0 0 0 0 0 0 0 0 0 0 0 0 0 0 0 0 0 0 0 0 0 0 0 0 0
0 0 0 0 0 0 0 0 0 0 0 0 0 0 0 0 0 0 0 0 0 0 0 0 0 0 0 0 0 0 0 0 0 0 0 0 0 0 0 0 0 0 0 0
0 0 0 0 0 0 0 0 0 0 0 0 0 0 0 0 0 0 0 0 0 0 0 0 0 0 0 0 0 0 0 0 0 0 0 0 0 0 0 0 0 0 0 0
Wind_Speed_500mb
10 11 12 13 10 21 19 13 15 16 18 19 13 13 13 17 9 4 9 12 13 11 9 6 2 3 6 10 16 21 25 29 35 41 42 40 40 44 49 53 54 51 46 45
6 6 12 10 13 20 19 5 15 14 15 20 11 9 2 4 19 31 37 40 38 37 33 27 20 14 9 5 7 12 16 19 22 27 31 35 39 46 49 48 50 50 56 55
9 3 7 9 15 20 11 11 11 16 23 10 10 10 15 24 30 37 40 41 40 36 30 25 20 16 11 8 11 17 21 21 21 22 24 30 38 43 41 44 54 54 51 55
6 4 11 7 4 6 22 10 18 11 10 10 8 16 24 31 42 40 36 35 34 31 27 23 19 15 16 15 16 16 16 16 16 15 17 23 29 31 34 45 46 51 62 64
10 9 6 4 9 14 14 27 20 27 11 15 34 27 15 28 32 36 33 30 28 24 20 17 16 19 20 20 16 13 10 10 8 5 4 8 13 19 28 46 51 56 56 59
7 10 18 11 9 15 8 25 17 25 21 40 32 15 12 31 30 31 29 27 25 22 18 15 16 14 11 16 15 17 18 16 13 11 7 5 5 13 22 27 35 42 50 55
6 7 11 12 10 24 12 29 25 43 47 55 21 7 46 41 34 30 29 27 24 22 16 16 16 13 15 21 26 29 29 26 21 14 6 2 9 17 25 31 33 31 34 39
7 4 15 23 16 20 16 10 30 41 56 48 29 39 54 43 38 34 31 28 24 21 25 26 24 18 29 31 31 25 20 14 7 2 6 12 13 10 14 22 31 36 43 48
18 13 4 51 16 45 14 17 23 50 64 64 51 56 53 48 41 38 33 33 33 31 33 31 27 24 25 28 18 12 8 6 6 7 8 11 15 18 22 28 35 42 48 55
6 10 15 29 46 23 31 27 22 53 75 59 55 57 55 52 48 44 40 38 34 32 32 31 25 21 20 19 14 9 7 7 9 12 16 19 23 28 31 35 41 46 51 56
6 10 6 33 40 41 32 31 31 48 63 60 57 61 58 56 51 47 43 39 33 30 30 29 23 21 20 15 10 6 9 11 14 18 22 26 29 33 36 37 40 45 45 49
13 33 21 24 56 43 38 36 43 57 56 54 56 62 60 56 52 48 44 40 36 32 28 29 23 18 13 9 6 9 13 17 22 26 30 33 36 38 40 41 43 42 43 45
3 17 39 20 40 47 46 46 51 56 59 63 56 58 59 60 54 50 45 40 35 32 29 24 17 10 8 7 10 14 18 22 27 31 36 40 44 47 51 50 51 51 50 49
27 22 18 32 24 46 49 52 50 49 50 54 62 60 59 58 56 48 44 39 33 29 25 18 12 7 5 8 13 18 21 26 30 34 38 41 44 47 50 53 57 55 53 52
31 42 24 42 36 50 49 52 54 57 59 61 59 62 60 61 56 49 43 38 32 25 20 15 8 3 6 12 17 21 25 29 32 34 36 39 43 46 49 52 54 57 59 57
34 25 26 42 51 54 58 60 65 66 67 69 67 63 59 55 52 47 40 31 24 21 16 10 3 5 10 16 20 24 27 29 31 33 36 38 42 45 48 49 51 54 57 59
30 20 28 42 50 53 53 55 60 68 69 69 67 63 61 56 50 43 36 29 20 16 10 3 4 9 15 19 22 24 26 29 31 33 35 38 40 42 44 46 49 51 53 53
18 12 25 33 58 61 54 53 57 61 63 64 66 60 55 47 40 35 26 29 21 12 5 2 8 14 17 21 23 25 26 28 30 32 34 36 38 40 41 43 45 48 51 52
14 7 18 37 48 51 55 57 58 55 55 54 55 53 44 37 29 31 31 24 14 8 5 7 12 17 20 22 23 25 25 27 29 31 33 35 36 38 39 41 43 45 48 51
33 33 39 48 48 53 59 55 54 57 55 49 44 33 29 30 32 30 24 17 11 7 8 11 16 19 22 24 25 26 26 27 29 31 33 34 35 36 37 38 41 43 46 48
47 50 55 54 52 48 49 51 52 51 43 32 29 28 34 37 29 21 15 12 9 9 11 15 19 21 23 25 25 25 26 28 29 31 33 34 34 35 36 38 41 44 45 47
47 48 48 49 52 54 50 43 38 39 36 34 32 35 33 30 24 18 13 10 9 12 16 20 23 25 24 23 25 27 28 29 30 31 33 34 35 36 37 40 42 43 45 47
46 50 52 53 54 50 42 34 30 29 34 33 31 27 22 18 14 10 9 10 12 16 19 23 26 27 26 25 27 29 30 30 31 32 33 34 36 38 39 41 42 44 45 47
52 47 46 42 42 41 41 36 32 29 27 24 19 15 10 7 6 7 10 11 15 19 22 27 28 28 28 28 30 31 32 32 32 32 33 35 37 38 39 40 41 42 44 45
43 42 39 36 36 36 35 31 27 23 18 15 9 3 2 6 10 11 15 18 20 24 28 30 31 30 30 30 31 33 33 33 33 33 35 37 37 37 38 40 42 44 44 45
36 35 32 28 27 24 21 16 13 11 6 2 4 9 12 14 17 19 22 24 27 29 31 32 33 32 31 32 32 34 35 35 34 36 37 38 37 37 39 40 42 43 44 44
40 36 34 33 29 22 15 11 6 3 6 8 10 13 17 21 24 25 27 30 31 32 33 34 33 32 31 32 33 35 36 37 37 38 38 38 38 38 39 41 43 44 43 43
Wind_Direction_500mb
224 209 183 199 181 177 199 202 197 239 213 251 255 267 283 300 322 107 101 108 108 115 116 123 124 281 275 275 286 291 296 295 295 291 287 278 264 252 242 234 230 222 219 224
188 146 205 232 207 196 217 224 245 238 242 237 249 259 301 124 125 108 101 98 97 97 97 95 91 87 77 39 328 310 299 296 295 290 283 271 253 245 240 234 220 219 213 215
220 91 148 284 210 192 193 204 191 213 231 169 200 181 150 132 125 116 111 106 101 95 88 80 68 52 24 350 318 307 302 299 294 287 276 266 256 251 247 230 222 215 214 224
155 115 226 249 101 204 219 238 219 252 230 211 155 122 131 141 133 123 114 108 104 98 93 84 69 49 28 3 340 324 312 306 300 288 270 255 249 247 229 218 219 223 236 254
152 201 296 210 200 180 177 251 215 228 196 153 136 120 103 145 140 129 123 115 110 103 92 79 57 40 23 13 10 8 15 15 16 3 275 244 237 240 244 245 249 257 259 261
153 189 223 191 209 161 119 271 198 190 177 158 157 165 169 160 146 134 127 120 115 108 95 72 52 45 34 49 58 63 64 69 75 84 100 145 260 291 270 257 262 265 275 283
156 216 285 245 143 141 155 262 195 190 173 167 179 184 164 161 150 141 134 126 115 112 103 84 77 70 83 92 88 88 89 92 94 93 97 254 285 285 282 282 285 289 292 292
113 142 261 160 120 173 218 212 216 188 176 168 165 151 156 159 153 145 136 129 127 125 109 101 97 100 103 98 99 100 98 95 87 11 296 287 289 301 303 300 298 297 297 297
191 205 204 183 205 201 202 226 209 190 179 174 158 156 160 156 150 143 142 138 130 122 116 111 107 104 108 110 116 110 99 71 33 8 349 335 326 321 318 314 312 310 307 305
121 210 218 210 221 217 228 236 228 198 182 180 168 164 160 156 152 149 143 137 131 126 122 120 118 114 105 110 105 94 71 40 9 352 345 338 334 328 325 320 315 313 311 309
261 265 285 241 226 224 224 221 203 187 184 187 179 168 164 158 155 151 147 141 140 135 129 123 123 119 114 109 92 44 15 3 352 344 337 332 328 324 322 322 321 319 317 314
211 210 193 227 220 210 208 199 190 184 179 182 184 172 166 159 158 155 152 149 147 140 135 130 130 125 117 100 61 19 358 349 345 341 337 333 331 331 331 332 331 327 321 319
200 236 209 223 193 198 197 192 190 189 189 180 175 173 168 160 158 155 152 151 148 143 138 136 134 125 98 52 16 359 352 347 344 342 340 340 340 339 338 337 335 333 335 334
224 210 186 195 192 187 192 184 183 180 178 178 171 168 166 160 154 156 154 151 149 145 142 141 133 112 59 11 356 351 349 346 344 343 343 340 338 338 338 338 337 338 339 337
200 204 242 205 187 184 184 179 172 170 168 164 166 165 165 158 157 155 151 150 148 148 146 143 138 82 13 355 347 345 344 345 344 344 342 341 340 339 338 337 336 335 335 334
191 212 190 191 178 177 178 175 173 163 164 161 161 161 160 159 155 150 148 150 155 152 151 150 129 6 353 346 343 342 341 340 341 343 343 342 341 340 338 337 335 334 334 335
156 158 173 167 171 168 171 171 173 164 163 163 163 160 159 157 151 150 155 152 164 168 157 141 355 345 338 337 337 337 338 340 343 343 341 341 340 338 337 336 334 333 334 335
203 195 198 205 178 171 164 167 166 164 163 163 158 156 154 153 156 149 164 171 170 175 185 290 323 332 332 332 333 337 338 338 338 339 338 338 337 337 335 333 334 333 334 335
194 184 185 190 182 167 163 162 163 160 155 156 153 152 145 138 152 165 165 168 179 205 246 301 319 326 326 327 330 332 333 334 335 335 336 336 335 334 333 333 334 334 334 335
140 155 163 164 163 166 157 156 155 151 149 146 142 150 146 155 169 168 167 176 195 234 274 303 317 322 322 322 324 326 328 330 333 333 333 333 332 331 331 332 332 333 335 336
144 147 151 151 146 145 144 143 143 139 140 141 140 150 170 165 166 173 180 200 224 260 294 312 319 317 315 315 318 321 325 329 331 329 329 330 330 330 330 331 333 333 334 335
134 137 136 135 132 128 129 131 136 138 140 147 164 172 173 172 177 184 198 231 260 289 306 315 318 316 315 315 319 322 325 326 327 327 327 327 328 329 330 330 331 332 333 334
124 124 125 128 128 126 128 131 138 150 158 163 165 168 173 177 181 201 231 258 278 296 312 319 319 318 315 316 318 320 321 323 323 322 322 325 327 327 327 329 330 332 332 332
118 119 121 124 128 131 132 136 146 149 153 151 157 158 167 187 222 265 281 289 304 312 316 316 316 314 312 312 314 317 318 319 319 319 321 322 323 323 323 325 327 329 329 329
116 119 125 131 131 127 135 141 147 148 153 151 147 152 312 320 322 313 305 308 309 311 313 315 315 311 309 309 312 315 317 318 316 316 317 317 318 319 321 324 326 327 328 328
115 112 113 115 115 120 124 126 136 136 147 182 286 301 309 318 318 311 308 308 309 310 311 313 314 312 309 309 310 314 317 316 315 314 313 313 314 316 319 322 324 325 325 325
99 102 104 104 104 107 113 112 97 27 347 337 326 322 316 311 305 302 304 306 308 311 315 317 316 314 312 312 313 313 314 312 311 310 309 310 312 314 317 320 321 322 322 323
Wind_Speed_850mb
10 11 12 13 10 21 19 13 15 16 18 19 13 13 13 17 9 4 9 12 13 11 9 6 2 3 6 10 16 21 25 29 35 41 42 40 40 44 49 53 54 51 46 45
6 6 12 10 13 20 19 5 15 14 15 20 11 9 2 4 19 31 37 40 38 37 33 27 20 14 9 5 7 12 16 19 22 27 31 35 39 46 49 48 50 50 56 55
9 3 7 9 15 20 11 11 11 16 23 10 10 10 15 24 30 37 40 41 40 36 30 25 20 16 11 8 11 17 21 21 21 22 24 30 38 43 41 44 54 54 51 55
6 4 11 7 4 6 22 10 18 11 10 10 8 16 24 31 42 40 36 35 34 31 27 23 19 15 16 15 16 16 16 16 16 15 17 23 29 31 34 45 46 51 62 64
10 9 6 4 9 14 14 27 20 27 11 15 34 27 15 28 32 36 33 30 28 24 20 17 16 19 20 20 16 13 10 10 8 5 4 8 13 19 28 46 51 56 56 59
7 10 18 11 9 15 8 25 17 25 21 40 32 15 12 31 30 31 29 27 25 22 18 15 16 14 11 16 15 17 18 16 13 11 7 5 5 13 22 27 35 42 50 55
6 7 11 12 10 24 12 29 25 43 47 55 21 7 46 41 34 30 29 27 24 22 16 16 16 13 15 21 26 29 29 26 21 14 6 2 9 17 25 31 33 31 34 39
7 4 15 23 16 20 16 10 30 41 56 48 29 39 54 43 38 34 31 28 24 21 25 26 24 18 29 31 31 25 20 14 7 2 6 12 13 10 14 22 31 36 43 48
18 13 4 51 16 45 14 17 23 50 64 64 51 56 53 48 41 38 33 33 33 31 33 31 27 24 25 28 18 12 8 6 6 7 8 11 15 18 22 28 35 42 48 55
6 10 15 29 46 23 31 27 22 53 75 59 55 57 55 52 48 44 40 38 34 32 32 31 25 21 20 19 14 9 7 7 9 12 16 19 23 28 31 35 41 46 51 56
6 10 6 33 40 41 32 31 31 48 63 60 57 61 58 56 51 47 43 39 33 30 30 29 23 21 20 15 10 6 9 11 14 18 22 26 29 33 36 37 40 45 45 49
13 33 21 24 56 43 38 36 43 57 56 54 56 62 60 56 52 48 44 40 36 32 28 29 23 18 13 9 6 9 13 17 22 26 30 33 36 38 40 41 43 42 43 45
3 17 39 20 40 47 46 46 51 56 59 63 56 58 59 60 54 50 45 40 35 32 29 24 17 10 8 7 10 14 18 22 27 31 36 40 44 47 51 50 51 51 50 49
27 22 18 32 24 46 49 52 50 49 50 54 62 60 59 58 56 48 44 39 33 29 25 18 12 7 5 8 13 18 21 26 30 34 38 41 44 47 50 53 57 55 53 52
31 42 24 42 36 50 49 52 54 57 59 61 59 62 60 61 56 49 43 38 32 25 20 15 8 3 6 12 17 21 25 29 32 34 36 39 43 46 49 52 54 57 59 57
34 25 26 42 51 54 58 60 65 66 67 69 67 63 59 55 52 47 40 31 24 21 16 10 3 5 10 16 20 24 27 29 31 33 36 38 42 45 48 49 51 54 57 59
30 20 28 42 50 53 53 55 60 68 69 69 67 63 61 56 50 43 36 29 20 16 10 3 4 9 15 19 22 24 26 29 31 33 35 38 40 42 44 46 49 51 53 53
18 12 25 33 58 61 54 53 57 61 63 64 66 60 55 47 40 35 26 29 21 12 5 2 8 14 17 21 23 25 26 28 30 32 34 36 38 40 41 43 45 48 51 52
14 7 18 37 48 51 55 57 58 55 55 54 55 53 44 37 29 31 31 24 14 8 5 7 12 17 20 22 23 25 25 27 29 31 33 35 36 38 39 41 43 45 48 51
33 33 39 48 48 53 59 55 54 57 55 49 44 33 29 30 32 30 24 17 11 7 8 11 16 19 22 24 25 26 26 27 29 31 33 34 35 36 37 38 41 43 46 48
47 50 55 54 52 48 49 51 52 51 43 32 29 28 34 37 29 21 15 12 9 9 11 15 19 21 23 25 25 25 26 28 29 31 33 34 34 35 36 38 41 44 45 47
47 48 48 49 52 54 50 43 38 39 36 34 32 35 33 30 24 18 13 10 9 12 16 20 23 25 24 23 25 27 28 29 30 31 33 34 35 36 37 40 42 43 45 47
46 50 52 53 54 50 42 34 30 29 34 33 31 27 22 18 14 10 9 10 12 16 19 23 26 27 26 25 27 29 30 30 31 32 33 34 36 38 39 41 42 44 45 47
52 47 46 42 42 41 41 36 32 29 27 24 19 15 10 7 6 7 10 11 15 19 22 27 28 28 28 28 30 31 32 32 32 32 33 35 37 38 39 40 41 42 44 45
43 42 39 36 36 36 35 31 27 23 18 15 9 3 2 6 10 11 15 18 20 24 28 30 31 30 30 30 31 33 33 33 33 33 35 37 37 37 38 40 42 44 44 45
36 35 32 28 27 24 21 16 13 11 6 2 4 9 12 14 17 19 22 24 27 29 31 32 33 32 31 32 32 34 35 35 34 36 37 38 37 37 39 40 42 43 44 44
40 36 34 33 29 22 15 11 6 3 6 8 10 13 17 21 24 25 27 30 31 32 33 34 33 32 31 32 33 35 36 37 37 38 38 38 38 38 39 41 43 44 43 43
Wind_Direction_850mb
224 209 183 199 181 177 199 202 197 239 213 251 255 267 283 300 322 107 101 108 108 115 116 123 124 281 275 275 286 291 296 295 295 291 287 278 264 252 242 234 230 222 219 224
188 146 205 232 207 196 217 224 245 238 242 237 249 259 301 124 125 108 101 98 97 97 97 95 91 87 77 39 328 310 299 296 295 290 283 271 253 245 240 234 220 219 213 215
220 91 148 284 210 192 193 204 191 213 231 169 200 181 150 132 125 116 111 106 101 95 88 80 68 52 24 350 318 307 302 299 294 287 276 266 256 251 247 230 222 215 214 224
155 115 226 249 101 204 219 238 219 252 230 211 155 122 131 141 133 123 114 108 104 98 93 84 69 49 28 3 340 324 312 306 300 288 270 255 249 247 229 218 219 223 236 254
152 201 296 210 200 180 177 251 215 228 196 153 136 120 103 145 140 129 123 115 110 103 92 79 57 40 23 13 10 8 15 15 16 3 275 244 237 240 244 245 249 257 259 261
153 189 223 191 209 161 119 271 198 190 177 158 157 165 169 160 146 134 127 120 115 108 95 72 52 45 34 49 58 63 64 69 75 84 100 145 260 291 270 257 262 265 275 283
156 216 285 245 143 141 155 262 195 190 173 167 179 184 164 161 150 141 134 126 115 112 103 84 77 70 83 92 88 88 89 92 94 93 97 254 285 285 282 282 285 289 292 292
113 142 261 160 120 173 218 212 216 188 176 168 165 151 156 159 153 145 136 129 127 125 109 101 97 100 103 98 99 100 98 95 87 11 296 287 289 301 303 300 298 297 297 297
191 205 204 183 205 201 202 226 209 190 179 174 158 156 160 156 150 143 142 138 130 122 116 111 107 104 108 110 116 110 99 71 33 8 349 335 326 321 318 314 312 310 307 305
121 210 218 210 221 217 228 236 228 198 182 180 168 164 160 156 152 149 143 137 131 126 122 120 118 114 105 110 105 94 71 40 9 352 345 338 334 328 325 320 315 313 311 309
261 265 285 241 226 224 224 221 203 187 184 187 179 168 164 158 155 151 147 141 140 135 129 123 123 119 114 109 92 44 15 3 352 344 337 332 328 324 322 322 321 319 317 314
211 210 193 227 220 210 208 199 190 184 179 182 184 172 166 159 158 155 152 149 147 140 135 130 130 125 117 100 61 19 358 349 345 341 337 333 331 331 331 332 331 327 321 319
200 236 209 223 193 198 197 192 190 189 189 180 175 173 168 160 158 155 152 151 148 143 138 136 134 125 98 52 16 359 352 347 344 342 340 340 340 339 338 337 335 333 335 334
224 210 186 195 192 187 192 184 183 180 178 178 171 168 166 160 154 156 154 151 149 145 142 141 133 112 59 11 356 351 349 346 344 343 343 340 338 338 338 338 337 338 339 337
200 204 242 205 187 184 184 179 172 170 168 164 166 165 165 158 157 155 151 150 148 148 146 143 138 82 13 355 347 345 344 345 344 344 342 341 340 339 338 337 336 335 335 334
191 212 190 191 178 177 178 175 173 163 164 161 161 161 160 159 155 150 148 150 155 152 151 150 129 6 353 346 343 342 341 340 341 343 343 342 341 340 338 337 335 334 334 335
156 158 173 167 171 168 171 171 173 164 163 163 163 160 159 157 151 150 155 152 164 168 157 141 355 345 338 337 337 337 338 340 343 343 341 341 340 338 337 336 334 333 334 335
203 195 198 205 178 171 164 167 166 164 163 163 158 156 154 153 156 149 164 171 170 175 185 290 323 332 332 332 333 337 338 338 338 339 338 338 337 337 335 333 334 333 334 335
194 184 185 190 182 167 163 162 163 160 155 156 153 152 145 138 152 165 165 168 179 205 246 301 319 326 326 327 330 332 333 334 335 335 336 336 335 334 333 333 334 334 334 335
140 155 163 164 163 166 157 156 155 151 149 146 142 150 146 155 169 168 167 176 195 234 274 303 317 322 322 322 324 326 328 330 333 333 333 333 332 331 331 332 332 333 335 336
144 147 151 151 146 145 144 143 143 139 140 141 140 150 170 165 166 173 180 200 224 260 294 312 319 317 315 315 318 321 325 329 331 329 329 330 330 330 330 331 333 333 334 335
134 137 136 135 132 128 129 131 136 138 140 147 164 172 173 172 177 184 198 231 260 289 306 315 318 316 315 315 319 322 325 326 327 327 327 327 328 329 330 330 331 332 333 334
124 124 125 128 128 126 128 131 138 150 158 163 165 168 173 177 181 201 231 258 278 296 312 319 319 318 315 316 318 320 321 323 323 322 322 325 327 327 327 329 330 332 332 332
118 119 121 124 128 131 132 136 146 149 153 151 157 158 167 187 222 265 281 289 304 312 316 316 316 314 312 312 314 317 318 319 319 319 321 322 323 323 323 325 327 329 329 329
116 119 125 131 131 127 135 141 147 148 153 151 147 152 312 320 322 313 305 308 309 311 313 315 315 311 309 309 312 315 317 318 316 316 317 317 318 319 321 324 326 327 328 328
115 112 113 115 115 120 124 126 136 136 147 182 286 301 309 318 318 311 308 308 309 310 311 313 314 312 309 309 310 314 317 316 315 314 313 313 314 316 319 322 324 325 325 325
99 102 104 104 104 107 113 112 97 27 347 337 326 322 316 311 305 302 304 306 308 311 315 317 316 314 312 312 313 313 314 312 311 310 309 310 312 314 317 320 321 322 322 323